Weather History for KIMT - April, 2013

Change the Weather History Date:

Monday, April 22, 2013

  Actual Average Record
Temperature  
Mean Temperature 38 °F -  
Max Temperature 43 °F 60 °F 94 °F (1980)
Min Temperature 34 °F 30 °F 18 °F (1936)
Degree Days  
Heating Degree Days 26    
Moisture  
Dew Point 37 °F    
Average Humidity 91    
Maximum Humidity 100    
Minimum Humidity 82    
Precipitation  
Precipitation 0.22 in - - ()
Sea Level Pressure  
Sea Level Pressure 30.17 in    
Wind  
Wind Speed 6 mph (SE)    
Max Wind Speed 9 mph    
Max Gust Speed -    
Visibility 7 miles    
Events Rain    
Averages and records for this station are not official NWS values.
T = Trace of Precipitation, MM = Missing Value Source: NWS Daily Summary

Daily Weather History Graph

Daily Weather History Graph

Search for Another Location

Airport or City:

Trip Planner

Search our weather history database for the weather conditions in past years. The results will help you decide how hot, cold, wet, or windy it might be!

Date:

Astronomy

Apr. 22, 2013 Rise Set
Actual Time 5:53 AM CDT 7:48 PM CDT
Civil Twilight 5:22 AM CDT 8:20 PM CDT
Nautical Twilight 4:42 AM CDT 9:00 PM CDT
Astronomical Twilight 4:00 AM CDT 9:43 PM CDT
Moon 4:28 PM CDT (4/22) 3:59 AM CDT (4/22)
Length of Visible Light 14h 58m
Length of Day
13h 54m
Waxing Gibbous, 88% of the Moon is Illuminated
Apr 22
Waxing Gibbous
Apr 25
Full
May 2
Last Quarter
May 9
New
May 17
First Quarter

Hourly Weather History & Observations

Time (CDT) Temp. Windchill Dew Point Humidity Pressure Visibility Wind Dir Wind Speed Gust Speed Precip Events Conditions
12:54 AM 34.0 °F 26.6 °F 28.9 °F 82% 30.22 in 8.0 mi SSE 9.2 mph - 0.00 in Rain Light Rain
1:54 AM 34.0 °F 27.2 °F 30.0 °F 85% 30.20 in 4.0 mi South 8.1 mph - 0.10 in Rain Light Rain
2:54 AM 35.1 °F 27.9 °F 32.0 °F 89% 30.19 in 10.0 mi South 9.2 mph - 0.01 in   Overcast
3:54 AM 35.1 °F 30.1 °F 33.1 °F 92% 30.18 in 10.0 mi SSE 5.8 mph - N/A   Overcast
4:54 AM 36.0 °F 31.1 °F 34.0 °F 93% 30.19 in 10.0 mi South 5.8 mph - N/A   Overcast
5:42 AM 37.4 °F 32.8 °F 33.8 °F 87% 30.15 in 10.0 mi South 5.8 mph - N/A   Overcast
5:54 AM 37.0 °F 33.3 °F 34.0 °F 89% 30.19 in 10.0 mi South 4.6 mph - N/A   Overcast
6:54 AM 37.9 °F 34.4 °F 35.1 °F 89% 30.20 in 10.0 mi South 4.6 mph - N/A   Overcast
7:54 AM 39.0 °F 35.7 °F 36.0 °F 89% 30.21 in 10.0 mi South 4.6 mph - N/A   Overcast
8:54 AM 39.9 °F 35.8 °F 37.0 °F 89% 30.21 in 10.0 mi SSE 5.8 mph - N/A   Overcast
9:38 AM 41.0 °F 38.0 °F 37.4 °F 87% 30.16 in 10.0 mi South 4.6 mph - N/A   Overcast
9:54 AM 41.0 °F 38.0 °F 37.0 °F 86% 30.21 in 10.0 mi SSE 4.6 mph - N/A   Overcast
10:54 AM 42.1 °F 40.2 °F 37.9 °F 85% 30.22 in 10.0 mi SE 3.5 mph - N/A   Overcast
11:54 AM 43.0 °F 38.2 °F 37.9 °F 82% 30.22 in 10.0 mi SSE 8.1 mph - N/A   Overcast
12:54 PM 43.0 °F 41.3 °F 39.0 °F 86% 30.20 in 10.0 mi SSE 3.5 mph - N/A   Overcast
1:54 PM 42.1 °F 40.2 °F 39.9 °F 92% 30.20 in 4.0 mi South 3.5 mph - 0.01 in Rain Light Rain
2:13 PM 42.8 °F - 41.0 °F 93% 30.16 in 1.8 mi Calm Calm - 0.03 in Rain Rain
2:28 PM 42.8 °F - 39.2 °F 87% 30.17 in 2.0 mi Calm Calm - 0.05 in Rain Rain
2:35 PM 42.8 °F - 41.0 °F 93% 30.17 in 1.5 mi Calm Calm - 0.07 in Rain Rain
2:51 PM 42.8 °F 41.1 °F 41.0 °F 93% 30.16 in 2.5 mi ESE 3.5 mph - 0.09 in Rain Light Rain
2:54 PM 42.1 °F 40.2 °F 41.0 °F 96% 30.20 in 2.5 mi SE 3.5 mph - 0.09 in Rain Light Rain
2:58 PM 42.8 °F 41.1 °F 41.0 °F 93% 30.16 in 2.5 mi ESE 3.5 mph - 0.00 in Rain Light Rain
3:07 PM 42.8 °F 41.1 °F 41.0 °F 93% 30.15 in 4.0 mi SE 3.5 mph - 0.00 in Rain Light Rain
3:17 PM 42.8 °F 41.1 °F 41.0 °F 93% 30.15 in 5.0 mi SE 3.5 mph - 0.00 in Rain Light Rain
3:54 PM 43.0 °F 41.3 °F 41.0 °F 93% 30.17 in 5.0 mi ENE 3.5 mph - 0.00 in Rain Light Rain
4:03 PM 42.8 °F 40.1 °F 39.2 °F 87% 30.13 in 5.0 mi ENE 4.6 mph - 0.00 in Rain Light Rain
4:54 PM 42.1 °F 39.2 °F 41.0 °F 96% 30.16 in 3.0 mi ENE 4.6 mph - 0.01 in Rain Light Rain
5:23 PM 41.0 °F 37.1 °F 39.2 °F 93% 30.12 in 4.0 mi ESE 5.8 mph - 0.00 in Rain Light Rain
5:54 PM 41.0 °F - 39.9 °F 96% 30.15 in 4.0 mi Calm Calm - 0.00 in Rain Light Rain
6:46 PM 41.0 °F 39.0 °F 39.2 °F 93% 30.10 in 10.0 mi ESE 3.5 mph - 0.00 in   Overcast
6:54 PM 41.0 °F 39.0 °F 39.0 °F 93% 30.13 in 9.0 mi East 3.5 mph - 0.00 in   Overcast
7:54 PM 39.9 °F 35.1 °F 37.9 °F 93% 30.13 in 10.0 mi ENE 6.9 mph - 0.00 in   Overcast
8:13 PM 37.4 °F 32.8 °F 37.4 °F 100% 30.09 in 4.0 mi ENE 5.8 mph - N/A   Overcast
8:54 PM 37.0 °F 31.6 °F 36.0 °F 96% 30.12 in 10.0 mi NE 6.9 mph - N/A   Overcast
9:54 PM 36.0 °F 31.1 °F 34.0 °F 93% 30.12 in 10.0 mi East 5.8 mph - 0.00 in Rain Light Rain
10:54 PM 36.0 °F 33.3 °F 34.0 °F 93% 30.12 in 8.0 mi NNE 3.5 mph - 0.00 in Rain Light Rain
11:54 PM 35.1 °F - 34.0 °F 96% 30.10 in 10.0 mi Calm Calm - 0.00 in   Overcast